Location: Grand Rapids
(42.9630°N, 85.6680°W)
Time: 15:03:42
(UTC-04:00)

Envisat - Pass Details

Date: 18 April 2024
Orbit: 762 x 764 km, 98.3° (Epoch: 20 May)

Event Time Altitude Azimuth Distance (km) Brightness Sun altitude
Rises 06:12:58 0° 1° (N) 3,238 6.6 -8.1°
Reaches altitude 10° 06:15:38 10° 348° (NNW) 2,307 5.6 -7.7°
Maximum altitude 06:19:40 25° 295° (WNW) 1,522 4.2 -7.0°
Drops below altitude 10° 06:23:42 10° 242° (WSW) 2,294 4.8 -6.3°
Enters shadow 06:24:33 - 237° (WSW) 2,570 5.1 -6.1°
